Hourly Data Report for November 11, 2016

PITT MEADOWS CS
BRITISH COLUMBIA

49°12'29.964" N
122°41'24.076" W
5.00 m
1106178
71775
WMM

Download Data

Hourly Data (November 2016)
Hourly Data Report for November 11, 2016
TIME
LST
Temp Definition
°C
Dew Point Definition
°C
Rel Hum Definition
%
Precip. Amount Definition
mm

Wind Dir Definition
10's deg

Wind Spd Definition
km/h
Visibility Definition
km
Stn Press Definition
kPa
Hmdx Definition


Wind Chill Definition


Weather Definition


00:00 11.0 10.2 95 0.0 10 3   101.59     LegendNANA
01:00 11.0 10.1 94 0.0 34 5   101.58     LegendNANA
02:00 10.9 10.2 95 0.0 33 4   101.58     LegendNANA
03:00 10.8 10.0 95 0.0 0 1   101.55     LegendNANA
04:00 10.9 9.9 93 0.0 13 6   101.46     LegendNANA
05:00 10.6 9.7 95 0.0 32 2   101.43     LegendNANA
06:00 10.4 9.7 95 0.0 26 2   101.40     LegendNANA
07:00 10.4 9.7 96 0.0 0 1   101.40     LegendNANA
08:00 10.7 9.9 95 0.0 10 4   101.44     LegendNANA
09:00 11.0 10.1 94 0.0 22 3   101.45     LegendNANA
10:00 11.9 10.8 94 0.0 7 5   101.40     LegendNANA
11:00 12.5 11.1 91 0.0 8 6   101.36     LegendNANA
12:00 13.0 11.3 89 0.0 22 3   101.29     LegendNANA
13:00 12.9 11.2 89 0.0 24 4   101.22     LegendNANA
14:00 13.2 11.3 89 0.0 31 3   101.20     LegendNANA
15:00 13.0 11.2 89 0.0 11 10   101.13     LegendNANA
16:00 12.9 10.9 88 0.0 20 4   101.09     LegendNANA
17:00 12.8 10.9 88 0.0 10 9   100.93     LegendNANA
18:00 12.2 10.5 90 0.0 26 4   100.94     LegendNANA
19:00 11.5 10.2 92 0.0 36 4   100.97     LegendNANA
20:00 11.7 10.5 92 0.0 15 4   101.01     LegendNANA
21:00 12.4 10.8 90 0.2 3 4   101.02     LegendNANA
22:00 12.4 10.8 90 1.8 34 5   100.98     LegendNANA
23:00 12.4 10.7 90 1.1 2 13   100.89     LegendNANA

Notes on Data Quality.

Legend

  • E = Estimated
  • M = Missing
  • NA = Not Available*
  • [empty] = Indicates an unobserved value
Date modified: